This is the latest recevied weather packets stored in our database for station/object KB3YCK-2. If no packets are shown the sender has not sent any weather packets the latest 10 day(s).
| Time | Temp. | Humidity | Pressure | Rain* | Wind** | Luminosity | Snow |
|---|---|---|---|---|---|---|---|
| 1778095203 | 17.78° C | 86% | 1008.3 hPa | 0 mm | - | 388 W/m² | - |
| 1778094604 | 17.22° C | 86% | 1008.5 hPa | 0 mm | - | 211 W/m² | - |
| 1778094310 | 16.67° C | 86% | 1008.6 hPa | 0 mm | - | 158 W/m² | - |
| 1778093118 | 16.67° C | 86% | 1008.7 hPa | 0 mm | - | 93 W/m² | - |
| 1778091002 | 16.11° C | 87% | 1008.9 hPa | 0 mm | - | 118 W/m² | - |
| 1778090103 | 16.11° C | 87% | 1008.9 hPa | 0 mm | - | 88 W/m² | - |
| 1778089504 | 16.11° C | 87% | 1008.9 hPa | 0 mm | - | 76 W/m² | - |
| 1778085914 | 16.11° C | 88% | 1009.2 hPa | 0.76 mm | - | 79 W/m² | - |
| 1778085010 | 16.11° C | 89% | 1009.3 hPa | 1.02 mm | - | 137 W/m² | - |
| 1778083513 | 16.11° C | 89% | 1009.3 hPa | 1.27 mm | - | 195 W/m² | - |
| 1778082607 | 16.11° C | 89% | 1009.8 hPa | 1.52 mm | - | 111 W/m² | - |
| 1778079606 | 16.11° C | 90% | 1010 hPa | 1.78 mm | - | 102 W/m² | - |
| 1778078407 | 16.11° C | 89% | 1010 hPa | 1.02 mm | - | 46 W/m² | - |
| 1778077805 | 16.67° C | 89% | 1010.3 hPa | 0.51 mm | - | 47 W/m² | - |
| 1778077508 | 16.67° C | 89% | 1010.4 hPa | 0.51 mm | - | 63 W/m² | - |
| 1778076307 | 17.22° C | 87% | 1010.1 hPa | 0 mm | - | 93 W/m² | - |
| 1778074208 | 17.78° C | 86% | 1010 hPa | 0 mm | - | 276 W/m² | - |
| 1778073908 | 17.78° C | 86% | 1010.1 hPa | 0 mm | - | 243 W/m² | - |
| 1778073612 | 17.78° C | 86% | 1010.1 hPa | 0 mm | - | 181 W/m² | - |
| 1778073307 | 17.78° C | 85% | 1010.1 hPa | 0 mm | - | 174 W/m² | - |
| 1778073004 | 17.78° C | 85% | 1010.1 hPa | 0 mm | - | 132 W/m² | - |
| 1778071520 | 17.78° C | 84% | 1010.3 hPa | 0 mm | - | 69 W/m² | - |
| 1778069113 | 17.78° C | 84% | 1010 hPa | 0 mm | - | 128 W/m² | - |
| 1778067905 | 17.78° C | 84% | 1009.9 hPa | 0 mm | - | 77 W/m² | - |
| 1778067604 | 17.78° C | 84% | 1009.8 hPa | 0 mm | - | 120 W/m² | - |
* Rain latest hour (hover to see other rain measurements)
** Current wind speed in m/s (hover to see current wind gust speed)